FENGYUN 1C DEB, 30320

Orbit data source: Space-Track

FENGYUN 1C DEB, 30320 is space debris in SSO originally from a launch on Mon, 10 May 1999 UTC launched from the Taiyaun Space Center, China (TSC). Fengyun 1C debris stems from the Chinese weather satellite Fengyun-1C, which was intentionally destroyed by a Chinese anti-satellite missile in 2007. This event dramatically increased the amount of space debris, with thousands of trackable fragments posing hazards to satellites and human spaceflight. The Fengyun 1C debris cloud has become a focal point in discussions about space sustainability and the need for international regulations to prevent the creation of new debris.

Loading next visibility...
Identifier
30320, 1999-025AAH
Orbit
SSO
Country
Flag of CNCN / PRC
Related business
Manufacturer
Unknown
Mission
Spacecraft
Bus & Motor
Unknown
Mass
Unknown
Launch date (UTC)
1999-05-10 (27 years ago)
Launch vehicle
Unknown
Launch site
Taiyaun Space Center, China (TSC)
Object type
Payload
Rocket body
Debris
Shape & HBR
Unknown shape, 0.1 m
Radar Cross Section
Medium (>0.1 m² and <1 m²)

Expand to show TLE details & history
Last TLE update: 1 day ago

TLE from 1 day ago
0 FENGYUN 1C DEB
1 30320U 99025AAH 26207.13425236  .00000074  00000-0  80160-4 0  9996
2 30320  99.1604 271.4684 0086402  37.1510 352.6803 13.98682579995589
Epoch: 2026-07-26T03:13Z
TLE epoch observation values (Epoch: 2026-07-26T03:13:19.403Z)
Latitude
29.33721°
Longitude
-85.87123°
Altitude
839.606 km
Speed
7.467 km/s
True Right ascension
17h 45m 11s
True Declination
29° 11' 32"
Sunlit
Object was in full shadow at epoch
Visualization orbit readout
Latitude
Unknown
Longitude
Unknown
Altitude
Unknown
Speed
Unknown
Apparent Right ascension
Unknown
Apparent Declination
Unknown
Sunlit
N/A
Visualization observer readout
Local Sidereal Time
00:01:28
Azimuth
Unknown
Elevation
Unknown
Doppler factor
Unknown
Orbital elements
Apogee altitude
958.416 km
Perigee altitude
832.723 km
Semi-major axis
7,273.706 km
Eccentricity
0.00864
Inclination
99.1604°
RAAN
271.4684°
Arg. of periapsis
37.151°
True anomaly
352.55279°
Mean anomaly
352.6803°
Eccentric anomaly
352.61668°
Mean motion
3.49872 °/min
Orbital period
102.89 mins
BSTAR
0.00008016
Loading maneuver chart data...
Computing Atmospheric mass density...
Loading historical data...
Loading historical data...
Loading historical data...
Loading historical data...
Loading historical data...
Loading historical data...
Loading historical data...

Documentation

Showing up to 5 results
|